{"data":{"norad_id":27632,"epoch":"2026-09-18T23:54:38.769984Z","epoch_age_seconds":144321,"freshness":"FRESH","line1":"1 27632U 02062A   26261.99628206 -.00000071  00000+0  00000+0 0  9996","line2":"2 27632   9.6579  55.8722 0005775 116.9068  74.5898  1.00273398 45128","mean_motion":1.00273398,"eccentricity":0.0005775,"inclination_deg":9.6579,"raan_deg":55.8722,"arg_perigee_deg":116.9068,"mean_anomaly_deg":74.5898,"bstar":0,"rev_number":4512,"period_min":1436.0738029442,"perigee_km":35761.792913223,"apogee_km":35810.492656374,"semimajor_km":42164.279784799,"source":"CELESTRAK","updated_at":"2026-09-20T09:00:35.120684Z"}}